[[{"header":{"parameterUnit":"m.s-1","parameterCategory":1,"la1":30.2991,"la2":30.254,"lo1":-89.0895,"lo2":-89.0444,"dy":0.0017,"dx":0.0017,"nx":28,"ny":28,"refTime":"2023-08-21T21:00:00:Z","depth":0,"parameterNumber":2,"parameterNumberName":"U-component_of_WINDS"},"data":[0,0,0,0,0,0,0,0,0,0,0,0,0,0,0,0,0,0,0,0,0,0,0,0,0,0,0,0,0,0,0,0,0,0,0,0,0,0,0,0,0,0,0,0,0,0,0,0,0,0,0,0,0,0,0,0,0,0,-4.7227,-4.7227,0,-4.7223,-4.7223,-4.7223,-4.7105,-4.7102,-4.7099,-4.7096,-4.7091,-4.7093,-4.7096,0,0,0,0,0,0,0,0,0,0,0,0,0,-4.7133,-4.7136,-4.7227,-4.7227,-4.7227,-4.7223,-4.7223,-4.7223,-4.7105,-4.7102,-4.7098,-4.7095,-4.709,-4.7093,-4.7096,0,0,0,0,0,0,0,0,0,0,0,0,0,-4.7156,-4.7136,-4.7227,-4.7168,-4.7163,-4.7223,-4.7223,-4.7223,-4.7106,-4.7102,-4.7097,-4.7093,-4.7089,-4.7093,-4.7097,-4.7213,0,0,-4.7109,-4.7111,0,0,0,0,0,0,0,0,-4.7155,-4.716,-4.7177,-4.7172,-4.7166,-4.716,-4.7187,-4.7219,-4.7107,-4.7128,-4.7096,-4.7091,-4.7117,-4.7119,-4.7128,-4.7213,-4.7212,-4.7109,-4.7112,-4.7114,-4.7115,0,0,0,0,0,0,0,-4.7153,-4.7159,-4.7225,-4.7177,-4.7171,-4.7141,-4.714,-4.7193,-4.7148,-4.7125,-4.7117,-4.7118,-4.7114,-4.7124,-4.7127,-4.7212,-4.7109,-4.7113,-4.7115,-4.7117,-4.7391,-4.7395,0,0,0,0,0,0,-4.716,-4.7159,-4.7225,-4.7225,-4.7149,-4.7147,-4.7145,-4.7166,-4.7147,-4.714,-4.7122,-4.7113,-4.712,-4.7122,-4.7126,-4.7259,-4.7114,-4.7117,-4.712,-4.7386,-4.7392,-4.7397,0,0,0,0,0,0,-4.7159,-4.7167,-4.7225,-4.719,-4.7195,-4.7153,-4.7178,-4.7169,-4.7179,-4.7144,-4.7136,-4.7141,-4.7116,-4.7121,-4.7192,-4.7257,-4.7119,-4.7123,-4.738,-4.7388,-4.7394,-4.7527,0,0,0,0,0,0,-4.7156,-4.7167,-4.7211,-4.7191,-4.7197,-4.7292,-4.7183,-4.7172,-4.7186,-4.7174,-4.716,-4.7153,-4.7113,-4.7187,-4.7196,-4.726,-4.7126,-4.7374,-4.7384,-4.7392,-4.7517,-4.7538,-4.7556,0,0,0,0,0,-4.7153,-4.7249,-4.7214,-4.7222,-4.7251,-4.7296,-4.7299,-4.725,-4.7192,-4.7235,-4.7213,-4.7154,-4.725,-4.7195,-4.7204,-4.7271,-4.737,-4.7381,-4.7391,-4.7508,-4.7534,-4.7556,0,0,0,0,0,0,-4.7276,-4.7245,-4.7206,-4.7298,-4.7301,-4.7276,-4.7329,-4.728,-4.7299,-4.7286,-4.7226,-4.7223,-4.7304,-4.7295,-4.7235,-4.7382,-4.7299,-4.7313,-4.7384,-4.7409,-4.7428,-4.7427,-4.7129,0,0,0,0,0,-4.7315,-4.7354,-4.7324,-4.7408,-4.7411,-4.7371,-4.7388,-4.7351,-4.7351,-4.7351,-4.7334,-4.7336,-4.7366,-4.7388,-4.7414,-4.7516,-4.751,-4.7567,-4.7587,-4.7603,-4.7614,-4.7666,-4.7691,-4.7433,-4.7433,-4.7433,0,0,-4.7393,-4.7381,-4.7409,-4.7432,-4.743,-4.7471,-4.7372,-4.742,-4.745,-4.7358,-4.7424,-4.7412,-4.7411,-4.7498,-4.7535,-4.7493,-4.7685,-4.7617,-4.763,-4.7633,-4.768,-4.7705,-4.7726,-4.744,-4.7439,-4.7438,0,0,-4.7556,-4.7552,-4.762,-4.762,-4.7618,-4.759,-4.7608,-4.7591,-4.7579,-4.7644,-4.7576,-4.7611,-4.7665,-4.7666,-4.7674,-4.784,-4.7785,-4.7851,-4.7953,-4.8004,-4.8025,-4.8042,-4.8099,-4.8121,-4.7863,-4.7863,-4.7863,0,-4.7654,-4.7713,-4.7662,-4.7714,-4.7726,-4.7646,-4.7715,-4.7717,-4.7724,-4.7734,-4.7687,-4.7752,-4.7746,-4.7831,-4.7872,-4.7882,-4.7898,-4.785,-4.8026,-4.8043,-4.8059,-4.8113,-4.8135,-4.7871,-4.787,-4.7869,-4.7868,0,-4.7832,-4.7875,-4.7931,-4.7939,-4.7958,-4.8019,-4.7976,-4.8001,-4.7963,-4.794,-4.8007,-4.7997,-4.8019,-4.8038,-4.8001,-4.8118,-4.8091,-4.8037,-4.7951,-4.8092,-4.8141,-4.8162,-4.7882,-4.7879,-4.7877,-4.7875,0,0,-4.8071,-4.8051,-4.8072,-4.8074,-4.8067,-4.8098,-4.8156,-4.8178,-4.8199,-4.8208,-4.8253,-4.8301,-4.825,-4.8259,-4.8222,-4.8268,-4.8398,-4.8207,-4.8206,-4.8241,-4.8524,-4.8564,-4.8588,-4.8363,-4.8367,-4.837,-4.8524,0,-4.8227,-4.8322,-4.8278,-4.8378,-4.8417,-4.8342,-4.8392,-4.8393,-4.8374,-4.8403,-4.8382,-4.8416,-4.8347,-4.8352,-4.8394,-4.8373,-4.8453,-4.8362,-4.8403,-4.8405,-4.8403,-4.8614,-4.8656,-4.8802,-4.8543,-4.8546,-4.8548,0,-4.8421,-4.8437,-4.8541,-4.8526,-4.854,-4.8586,-4.8602,-4.8632,-4.8631,-4.8614,-4.8625,-4.8578,-4.8632,-4.8551,-4.8625,-4.8563,-4.8578,-4.8571,-4.8575,-4.8574,-4.8483,-4.8617,-4.8847,-4.8868,-4.8579,-4.8576,-4.8574,0,-4.8581,-4.8629,-4.8697,-4.8702,-4.8687,-4.872,-4.8716,-4.8711,-4.8727,-4.8742,-4.8751,-4.8773,-4.8784,-4.8801,-4.8761,-4.8706,-4.884,-4.8755,-4.8826,-4.8827,-4.8855,-4.8853,-4.9088,-4.887,-4.8869,-4.8869,-4.8869,0,-4.8758,-4.8824,-4.8769,-4.881,-4.8882,-4.8832,-4.8904,-4.8891,-4.8888,-4.8926,-4.8864,-4.89,-4.8846,-4.8878,-4.8847,-4.8912,-4.8918,-4.8905,-4.8895,-4.8909,-4.891,-4.8915,-4.8903,-4.8875,-4.8874,-4.8872,-4.8871,0,-4.8948,-4.8914,-4.8983,-4.8963,-4.896,-4.9014,-4.8997,-4.9035,-4.9012,-4.9061,-4.9069,-4.9034,-4.9067,-4.903,-4.9061,-4.904,-4.9127,-4.9104,-4.9127,-4.912,-4.9192,-4.9185,-4.9436,-4.9465,-4.9231,-4.9233,-4.9235,0,-4.9062,-4.9111,-4.9097,-4.9118,-4.9117,-4.9152,-4.9167,-4.912,-4.9139,-4.9143,-4.918,-4.9209,-4.9228,-4.9286,-4.9263,-4.9286,-4.9262,-4.9348,-4.9265,-4.9277,-4.926,-4.9257,-4.9261,-4.9364,-4.9367,-4.937,-4.9371,0,-4.9267,-4.9247,-4.9273,-4.9293,-4.9314,-4.9328,-4.9336,-4.9357,-4.9308,-4.9333,-4.9366,-4.9382,-4.9414,-4.9443,-4.946,-4.9454,-4.9405,-4.9399,-4.9416,-4.9428,-4.9439,-4.9432,-4.9171,-4.9392,-4.939,-4.9388,-4.9387,-4.9387,-4.942,-4.946,-4.9456,-4.9487,-4.9489,-4.9498,-4.9532,-4.9514,-4.9542,-4.9564,-4.9534,-4.9576,-4.9574,-4.9592,-4.9593,-4.9625,-4.9588,-4.9613,-4.9619,-4.9625,-4.9635,-4.9436,-4.9628,-4.9627,-4.9627,-4.9626,-4.9626,0,-4.962,-4.9614,-4.9643,-4.9657,-4.9681,-4.9634,-4.9641,-4.9664,-4.9701,-4.9704,-4.9725,-4.9764,-4.9792,-4.9772,-4.9795,-4.9825,-4.9802,-4.9832,-4.9828,-4.9827,-4.9668,-4.965,-4.985,-4.985,-4.985,-4.985,-4.985,-4.985,-4.9726,-4.979,-4.9771,-4.9836,-4.9829,-4.987,-4.9878,-4.9886,-4.9888,-4.9934,-4.9957,-4.9944,-4.9937,-4.996,-4.9984,-4.9977,-4.9987,-5.0025,-5.001,-4.9861,-4.9839,-4.9818,-4.98,-5.0028,-5.0029,-5.0166,-5.0168,-5.0169]},{"header":{"parameterUnit":"m.s-1","parameterCategory":1,"la1":30.2991,"la2":30.254,"lo1":-89.0895,"lo2":-89.0444,"dy":0.0017,"dx":0.0017,"nx":28,"ny":28,"refTime":"2023-08-21T21:00:00:Z","depth":0,"parameterNumber":3,"parameterNumberName":"V-component_of_WINDS"},"data":[0,0,0,0,0,0,0,0,0,0,0,0,0,0,0,0,0,0,0,0,0,0,0,0,0,0,0,0,0,0,0,0,0,0,0,0,0,0,0,0,0,0,0,0,0,0,0,0,0,0,0,0,0,0,0,0,0,0,1.9194,1.9195,0,1.9249,1.9249,1.925,1.9257,1.9256,1.9256,1.9255,1.9307,1.9309,1.9311,0,0,0,0,0,0,0,0,0,0,0,0,0,1.9094,1.9096,1.9194,1.9195,1.9196,1.9248,1.9249,1.925,1.9257,1.9256,1.9255,1.9255,1.9307,1.9309,1.9311,0,0,0,0,0,0,0,0,0,0,0,0,0,1.9142,1.9097,1.9194,1.9206,1.9207,1.9248,1.9249,1.925,1.9257,1.9256,1.9255,1.9255,1.9306,1.9308,1.9311,1.9344,0,0,1.932,1.9321,0,0,0,0,0,0,0,0,1.9139,1.9146,1.9203,1.9205,1.9207,1.9245,1.9233,1.9281,1.9257,1.9238,1.9255,1.9254,1.9287,1.9291,1.9303,1.9346,1.9348,1.932,1.9322,1.9323,1.9324,0,0,0,0,0,0,0,1.9136,1.9143,1.9216,1.9204,1.9206,1.9207,1.9213,1.9242,1.9266,1.9239,1.924,1.9247,1.9288,1.93,1.9304,1.9349,1.932,1.9322,1.9324,1.9325,1.9423,1.9424,0,0,0,0,0,0,1.9131,1.9141,1.9214,1.9217,1.9171,1.921,1.9216,1.9233,1.9266,1.927,1.9247,1.9247,1.9296,1.9301,1.9306,1.9347,1.9323,1.9326,1.9327,1.9422,1.9423,1.9424,0,0,0,0,0,0,1.9129,1.9138,1.9212,1.9179,1.9189,1.9212,1.9231,1.9235,1.9247,1.9272,1.9275,1.9256,1.9295,1.9302,1.9335,1.9349,1.9327,1.9329,1.9421,1.9423,1.9424,1.9428,0,0,0,0,0,0,1.9126,1.9137,1.915,1.9179,1.919,1.924,1.9232,1.9237,1.9253,1.9253,1.9281,1.9284,1.9295,1.9331,1.9338,1.9352,1.9331,1.942,1.9422,1.9423,1.9427,1.9429,1.9432,0,0,0,0,0,1.9122,1.9148,1.915,1.9159,1.9207,1.9241,1.9247,1.926,1.9254,1.9267,1.9283,1.9284,1.9346,1.9334,1.9342,1.9357,1.9419,1.9421,1.9423,1.9426,1.9429,1.9432,0,0,0,0,0,0,1.9117,1.9152,1.9155,1.9191,1.9213,1.9242,1.9259,1.9263,1.9286,1.9285,1.9299,1.9306,1.9338,1.9351,1.9337,1.9391,1.9382,1.9386,1.9381,1.9384,1.9387,1.9382,1.9334,0,0,0,0,0,1.912,1.9146,1.9174,1.9203,1.9214,1.9235,1.925,1.9258,1.9281,1.929,1.9308,1.933,1.9355,1.937,1.9394,1.9429,1.9435,1.9444,1.9446,1.9448,1.9451,1.9471,1.9475,1.9431,1.9431,1.9431,0,0,1.9127,1.9149,1.9164,1.9203,1.9221,1.9246,1.9242,1.9269,1.9288,1.9294,1.9326,1.9341,1.9366,1.94,1.9416,1.9412,1.9465,1.9451,1.9452,1.9454,1.9474,1.9478,1.9481,1.9433,1.9432,1.9432,0,0,1.9151,1.9171,1.9198,1.9217,1.9245,1.9259,1.9265,1.9294,1.9304,1.9337,1.9343,1.9365,1.9407,1.9425,1.944,1.9474,1.9476,1.9481,1.9493,1.9513,1.9516,1.9519,1.9531,1.9535,1.9484,1.9484,1.9484,0,1.9155,1.9195,1.921,1.9238,1.9255,1.9263,1.929,1.9307,1.9342,1.9353,1.9348,1.9403,1.942,1.9459,1.9467,1.9479,1.9486,1.9477,1.9515,1.9518,1.9521,1.9533,1.9537,1.9484,1.9484,1.9484,1.9484,0,1.9198,1.9226,1.9244,1.9278,1.9298,1.9324,1.9343,1.9361,1.9368,1.9382,1.9416,1.9438,1.9467,1.9477,1.9483,1.9517,1.9514,1.9512,1.9503,1.9526,1.9537,1.9541,1.9485,1.9485,1.9485,1.9485,0,0,1.9219,1.9264,1.927,1.9287,1.932,1.9341,1.9368,1.9398,1.9413,1.9436,1.9459,1.9496,1.9495,1.9512,1.9521,1.9538,1.9564,1.9534,1.9535,1.9538,1.9602,1.9603,1.9608,1.9566,1.9567,1.9567,1.96,0,1.9247,1.9298,1.9313,1.9355,1.9381,1.939,1.9414,1.9437,1.9451,1.9474,1.949,1.9516,1.9512,1.9523,1.954,1.9557,1.9576,1.9555,1.9586,1.9587,1.9579,1.9614,1.9614,1.9644,1.9604,1.9605,1.9606,0,1.9287,1.9313,1.9358,1.9389,1.94,1.9421,1.9451,1.9473,1.9499,1.9508,1.9528,1.9536,1.9565,1.9555,1.9595,1.958,1.9594,1.9604,1.9606,1.9608,1.9597,1.9616,1.9653,1.9658,1.9613,1.9612,1.9612,0,1.9297,1.9344,1.9377,1.9391,1.9428,1.9443,1.9458,1.9484,1.9501,1.9527,1.9538,1.9566,1.9581,1.9603,1.9618,1.961,1.9656,1.9648,1.9664,1.9664,1.9672,1.9671,1.9711,1.9683,1.9683,1.9683,1.9683,0,1.9327,1.9353,1.9382,1.9403,1.9433,1.9451,1.9481,1.9497,1.952,1.9543,1.9553,1.9574,1.9594,1.9618,1.963,1.9661,1.9668,1.9675,1.9678,1.9674,1.9673,1.9683,1.9681,1.9684,1.9684,1.9683,1.9683,0,1.9343,1.9364,1.94,1.9433,1.9442,1.9463,1.9491,1.9511,1.9527,1.9556,1.9564,1.9588,1.9617,1.9635,1.9671,1.9679,1.9713,1.9715,1.9705,1.9706,1.9721,1.9719,1.9768,1.9775,1.9742,1.9743,1.9743,0,1.936,1.9381,1.9417,1.9434,1.9451,1.9478,1.9496,1.9515,1.9534,1.9566,1.9582,1.9612,1.9636,1.9682,1.9702,1.973,1.9733,1.9748,1.9737,1.9733,1.9733,1.9731,1.9733,1.9749,1.975,1.975,1.975,0,1.9388,1.9398,1.9424,1.9455,1.9477,1.9502,1.9527,1.954,1.9563,1.9583,1.9614,1.9633,1.9671,1.9701,1.9731,1.9746,1.9752,1.9754,1.9759,1.9755,1.9747,1.9751,1.9709,1.9752,1.9752,1.9752,1.9752,1.9752,1.9405,1.9425,1.9454,1.9483,1.9504,1.9528,1.9548,1.9567,1.9593,1.9627,1.9636,1.9668,1.9695,1.9736,1.9753,1.9777,1.9775,1.9782,1.9784,1.9786,1.9786,1.9745,1.9783,1.9783,1.9783,1.9783,1.9783,0,1.9433,1.9453,1.948,1.9516,1.9539,1.9544,1.9572,1.9591,1.9619,1.9644,1.9669,1.9705,1.9734,1.9757,1.9787,1.9802,1.9806,1.981,1.9808,1.9812,1.9786,1.9779,1.9806,1.9806,1.9806,1.9806,1.9806,1.9806,1.9451,1.9485,1.9498,1.9542,1.9562,1.9594,1.961,1.9631,1.9651,1.9691,1.9715,1.9731,1.9755,1.9788,1.9814,1.9821,1.9831,1.9834,1.9841,1.9816,1.9813,1.9811,1.9804,1.9836,1.9836,1.9864,1.9864,1.9864]}]]